Skip Page Navigation
NASA JPL Caltech
NASA Logo - Jet Propulsion Laboratory + View the NASA Portal
+ Center for Near-Earth Object Studies
JPL Home Earth Solar System Stars & Galaxies Technology
JPL Solar System Dynamics
BODIES ORBITS EPHEMERIDES TOOLS PHYSICAL DATA DISCOVERY FAQ SITE MAP
IMPORTANT: The SSD Announcement email list is now available. Major changes are coming in the near future, including possible hostname and/or URL changes. To be notified of such changes, subscribe to this email list.

Please visit this page for more details.


JPL Small-Body Database Browser
Search: [ help ]  
410182 (2007 RA60)
Classification: Main-belt Asteroid          SPK-ID: 2410182
Ephemeris | Orbit Diagram | Orbital Elements | Mission Design | Physical Parameters | Discovery Circumstances ]

[ show orbit diagram ]
Orbital Elements at Epoch 2458600.5 (2019-Apr-27.0) TDB
Reference: JPL 11 (heliocentric ecliptic J2000)
 Element Value Uncertainty (1-sigma)   Units 
e .1351226124600435 1.0421e-07  
a 2.268691534721866 2.8601e-08 au
q 1.962140007684262 2.3691e-07 au
i 7.079954864332665 1.0715e-05 deg
node 349.0507692871746 5.9395e-05 deg
peri 332.1435911272386 6.6963e-05 deg
M 164.5435727173617 3.5942e-05 deg
tp 2458030.020523665415
(2017-Oct-03.52052367)
0.00012028 TDB
period 1248.135117578986
3.42
2.3603e-05
6.462e-08
d
yr
n .2884303108931779 5.4543e-09 deg/d
Q 2.57524306175947 3.2466e-08 au
  Orbit Determination Parameters
   # obs. used (total)      71  
   data-arc span      4679 days (12.81 yr)  
   first obs. used      2006-02-24  
   last obs. used      2018-12-17  
   planetary ephem.      DE431  
   SB-pert. ephem.      SB431-N16  
   condition code      0  
   norm. resid. RMS      .69528  
   source      ORB  
   producer      Otto Matic  
   solution date      2019-Jul-14 13:35:26  

Additional Information
 Earth MOID = .952229 au 
 Jupiter MOID = 2.72733 au 
 T_jup = 3.592 
[ show covariance matrix ]

Ephemeris | Orbit Diagram | Orbital Elements | Mission Design | Physical Parameters | Discovery Circumstances ]

Physical Parameter Table
Parameter Symbol Value Units Sigma Reference Notes
absolute magnitude H 17.7   n/a MPO419023  

410182 (2007 RA60)          Discovered 2006-Feb-24 by Spacewatch at Kitt Peak
Reference: Last Updated: 2014-10-09
Ephemeris | Orbit Diagram | Orbital Elements | Mission Design | Physical Parameters | Discovery Circumstances ]
ABOUT SSD CREDITS/AWARDS PRIVACY/COPYRIGHT GLOSSARY LINKS
FirstGov 2020-Jan-26 05:47 UT
(server date/time)  
NASA Home Page
Site Manager:   Ryan S. Park
Webmaster  Alan B. Chamberlin